Home   Weather   Dar es Salaam   Past weeks
Flag for Tanzania

Past Weather in Dar es Salaam, Tanzania — Yesterday and Last 2 Weeks

Now
75 °F

Passing clouds.


Feels Like: 74 °F
Forecast: 85 / 76 °F
Wind: 5 mph from East

Location: Dar Es Salaam Airport

Current Time: Oct 13, 2019 at 11:48:28 pm

Latest Report: Oct 13, 2019 at 11:00 pm


Visibility: N/A

Pressure: 29.95 "Hg

Humidity: 94%

Dew Point: 73 °F

Location of Dar es SalaamLocation

Past Weather in Dar es Salaam — Graph

°F

Dar es Salaam Temperature Yesterday

Maximum temperature yesterday: 86 °F (at 1:00 pm)
Minimum temperature yesterday: 75 °F (at 12:00 am)
Average temperature yesterday: 80 °F

High & Low Weather Summary for the Past Weeks

 TemperatureHumidityPressure
High91 °F (Oct 2, 3:00 pm)100% (Sep 29, 5:00 am)30.04 "Hg (Sep 29, 5:00 am)
Low70 °F (Sep 29, 5:00 am)55% (Sep 29, 3:00 pm)29.83 "Hg (Sep 29, 3:00 pm)
Average79 °F86%29.92 "Hg
* Reported Sep 28 9:00 pm — Oct 13 9:00 pm, Dar es Salaam. Weather by CustomWeather, © 2019

Note: Actual official high and low records may vary slightly from our data, if they occured in-between our weather recording intervals... More about our weather records

Advertising

Dar es Salaam Weather History for the Previous 24 Hours

Scroll right to see more
 ConditionsComfort  
Time TempWeatherWind HumidityBarometerVisibility
9:00 pm
Sun, Oct 13
77 °FPassing clouds.8 mph89%29.92 "HgN/A
8:00 pm77 °FPassing clouds.6 mph89%29.92 "HgN/A
7:00 pm79 °FPassing clouds.8 mph84%29.89 "HgN/A
6:00 pm81 °FPassing clouds.15 mph79%29.89 "HgN/A
5:00 pm82 °FScattered clouds.12 mph70%29.86 "HgN/A
4:00 pm84 °FScattered clouds.15 mph70%29.86 "HgN/A
3:00 pm86 °FScattered clouds.14 mph66%29.86 "HgN/A
2:00 pm86 °FScattered clouds.18 mph66%29.86 "HgN/A
1:00 pm88 °FPartly sunny.14 mph66%29.89 "HgN/A
12:00 pm86 °FPartly sunny.14 mph70%29.92 "HgN/A
11:00 am86 °FScattered clouds.17 mph66%29.95 "HgN/A
10:00 am84 °FPartly sunny.9 mph74%29.95 "HgN/A
9:00 am82 °FPartly sunny.12 mph84%29.95 "HgN/A
8:00 am77 °FScattered showers. Scattered clouds.5 mph94%29.95 "HgN/A
7:00 am75 °FFog.5 mph100%29.92 "HgN/A
6:00 am73 °FPassing clouds.5 mph100%29.89 "HgN/A
5:00 am75 °FPassing clouds.5 mph94%29.89 "HgN/A
4:00 am75 °FPartly cloudy.6 mph94%29.89 "HgN/A
3:00 am75 °FPassing clouds.5 mph94%29.86 "HgN/A
2:00 am75 °FPassing clouds.5 mph94%29.89 "HgN/A
1:00 am77 °FPassing clouds.5 mph94%29.89 "HgN/A
12:00 am77 °FPassing clouds.5 mph89%29.92 "HgN/A
11:00 pm
Sat, Oct 12
77 °FPassing clouds.5 mph94%29.92 "HgN/A
Weather by CustomWeather, © 2019

See weather overview